Regional Weather Roundup
Issued by NWS

Home | Current Version | Previous Version | Text Only | Print | Product List | Glossary On
Versions: 1 2 3 4 5 6 7 8 9 10 11 12 13 14 15 16 17 18 19 20 21 22 23 24 25 26 27 28 29 30 31 32 33 34 35 36 37 38 39 40 41 42 43 44 45 46 47 48 49 50
000
ASUS43 KMKX 192200
RWRWI

WISCONSIN REGIONAL WEATHER ROUNDUP
NATIONAL WEATHER SERVICE MILWAUKEE/SULLIVAN WI
400 PM CST FRI DEC 19 2014

NOTE: "FAIR" INDICATES FEW OR NO CLOUDS BELOW 12,000 FEET WITH NO
SIGNIFICANT WEATHER AND/OR OBSTRUCTIONS TO VISIBILITY.

WIZ001-002-006>008-014>016-023>028-192300-
NORTHWEST WISCONSIN

CITY           SKY/WX    TMP DP  RH WIND       PRES   REMARKS
SUPERIOR ARPT  CLOUDY    27  22  82 SE5       30.21S WCI  22
ASHLAND        CLOUDY    25  21  85 CALM      30.23S
HAYWARD        CLOUDY    25  20  81 S8        30.20S HAZE    WCI  16
SIREN          CLOUDY    27  20  76 S8        30.20S WCI  19
CUMBERLAND     CLOUDY    27  19  74 SE7       30.19F WCI  19
RICE LAKE      CLOUDY    27  21  79 SE8       30.22S WCI  18
CHETEK         CLOUDY    26  21  80 SE7       30.22S WCI  18
LADYSMITH      FLURRIES  26  22  86 S6        30.23S WCI  19
EAU CLAIRE     NOT AVBL
MENOMONIE      CLOUDY    28  20  72 SE6       30.23S WCI  22
NEW RICHMOND   CLOUDY    27  24  89 SE8       30.20S WCI  18
OSCEOLA        CLOUDY    28  23  84 SE5       30.22F WCI  22
$$

WIZ003>005-009-010-017-018-192300-
NORTH CENTRAL WISCONSIN

CITY           SKY/WX    TMP DP  RH WIND       PRES   REMARKS
MANITOWISH WTR CLOUDY    22  18  83 S6        30.19S WCI  15
ARBOR VITAE    MOCLDY    22  17  81 CALM      30.20S
WOODRUFF       MOCLDY    22  17  81 CALM      30.20S
RHINELANDER    MOCLDY    22  16  78 W6        30.20S WCI  14
EAGLE RIVER    PTCLDY    24  17  73 CALM      30.19R
LAND O LAKES   CLOUDY    24  20  84 CALM      30.20S
PHILLIPS       CLOUDY    22  20  89 S7        30.20S WCI  14
TOMAHAWK       MOCLDY    22  17  78 CALM      30.22R
MEDFORD        CLOUDY    22  20  94 S3        30.21F
MERRILL        PTCLDY    24  18  76 SW3       30.22F
$$

WIZ029-030-035-036-043>047-192300-
CENTRAL WISCONSIN

CITY           SKY/WX    TMP DP  RH WIND       PRES   REMARKS
WAUSAU         MOCLDY    25  17  72 SW6       30.22S WCI  18
MOSINEE        MOCLDY    25  19  80 SW6       30.24S WCI  18
MARSHFIELD     CLOUDY    24  20  84 S6        30.24R WCI  17
STEVENS POINT  CLOUDY    24  17  74 SW3       30.25S
WAUPACA          N/A     31  19  62 S5        30.26S WCI  26
WAUTOMA        NOT AVBL
WISC RAPIDS    CLOUDY    24  19  81 SW7       30.27S WCI  16
CAMP DOUGLAS   NOT AVBL
$$

WIZ011>013-019>022-031-037>040-048>050-192300-
NORTHEAST WISCONSIN

CITY           SKY/WX    TMP DP  RH WIND       PRES   REMARKS
ANTIGO         CLEAR     25  17  69 S5        30.21S WCI  19
SHAWANO        CLEAR     31  20  62 CALM      30.26S
OCONTO         CLEAR     28  22  79 S3        30.28R
STURGEON BAY   CLOUDY    27  19  74 CALM      30.29R
GREEN BAY      PTCLDY    30  21  69 S5        30.27S WCI  25
MANITOWOC      NOT AVBL
APPLETON       PTCLDY    28  19  69 VRB5      30.26S WCI  23
CLINTONVILLE   PTCLDY    30  19  64 CALM      30.26S
OSHKOSH        CLOUDY    28  18  66 CALM      30.26S
$$

WIZ032>034-041-042-053>061-192300-
SOUTHWEST WISCONSIN

CITY           SKY/WX    TMP DP  RH WIND       PRES   REMARKS
LA CROSSE      CLOUDY    31  20  63 S6        30.27R WCI  25
SPARTA         CLOUDY    29  19  66 CALM      30.26S
VIROQUA        CLOUDY    28  21  75 S5        30.23R WCI  23
BOSCOBEL       CLOUDY    31  20  63 S3        30.29R
PRAIRIE DU CHI CLOUDY    29  20  68 S3        30.29R
PLATTEVILLE    CLOUDY    29  22  73 CALM      30.29R
$$

WIZ056-057-062-063-064-067-068-192300-
SOUTH CENTRAL WISCONSIN

CITY           SKY/WX    TMP DP  RH WIND       PRES   REMARKS
REEDSBURG      CLOUDY    25  20  82 CALM      30.26S
BARABOO/DELLS  CLOUDY    24  20  83 CALM      30.27R
LONE ROCK      NOT AVBL
MINERAL POINT  CLOUDY    30  21  69 CALM      30.26R
MADISON        CLOUDY    26  20  77 CALM      30.28R
MIDDLETON      CLOUDY    28  22  78 W5        30.28R WCI  22
WATERTOWN      CLOUDY    28  19  71 W5        30.27R WCI  22
MONROE         CLOUDY    28  23  80 CALM      30.27R
JANESVILLE     CLOUDY    28  21  74 CALM      30.29R
$$

WIZ051-052-058>065-066-070>072-192300-
SOUTHEAST WISCONSIN

CITY           SKY/WX    TMP DP  RH WIND       PRES   REMARKS
MILWAUKEE      MOCLDY    31  18  58 SW5       30.28R WCI  26
WAUKESHA       CLOUDY    28  18  64 MISG      30.27R
MILWAUKEE/TIMM CLOUDY    30  18  59 CALM      30.27R
RACINE         CLOUDY    30  19  63 W5        30.30R WCI  25
BURLINGTON     CLOUDY    27  17  66 CALM      30.28R
KENOSHA        CLOUDY    29  21  72 SW6       30.29R WCI  23
FOND DU LAC    CLOUDY    29  18  63 W3        30.26S
SHEBOYGAN      CLOUDY    30  21  69 NW6       30.26S WCI  24
WEST BEND      CLOUDY    30  19  64 CALM      30.25S
JUNEAU         CLOUDY    27  19  69 CALM      30.27R
$$

LSZ147-162-192300-
LAKE SUPERIOR

STATION/POSITION TIME  TEMP    WIND        PRES    WAVE
                       AIR SEA DIR/SP/G            HT/PER
                 (UTC) (F)     (DEG/KT/KT) (MB)    (FT/S)
DEVILS ISLAND    2100   25     180/  5/  7 1025.1R
PORT WING        2140   27     170/  4/  5 1023.7S
SAXON HARBOR     2100   26      CALM  /  6 1023.7S
$$

LMZ867-665-643>646-192300-
LAKE MICHIGAN

STATION/POSITION TIME  TEMP    WIND        PRES    WAVE
                       AIR SEA DIR/SP/G            HT/PER
                 (UTC) (F)     (DEG/KT/KT) (MB)    (FT/S)
CHAMBERS ISLAND  2100   32     300/  4/  6 1025.4S
NORTHPORT PIER   2122   28     300/  4/  6 1025.1S
ALGOMA LAKESHORE 2114          250/  7/  8   N/A
KEWAUNEE LAKESHO 2100   30     310/  3/  6 1024.1R
SHEBOYGAN LAKESH 2100   31 33  310/  3/  4 1026.0R
PORT WASHINGTON  2140   31     360/  2/  5 1025.7R
MILWAUKEE LAKESH 2100   32     250/  2/  3   N/A
KENOSHA   LAKESH 2100   30     250/  6/  7 1024.7S
$$

TC  - TEMPERATURE IN CELSIUS
VSB - VISIBILITY IN STATUTE MILES
WCI - WIND CHILL INDEX
HX  - HEAT INDEX



USA.gov is the U.S. government's official web portal to all federal, state and local government web resources and services.